Simultaneous Nadir Overpasses (SNOs) Predictions

Prediction of SNOs between NOAA-20 and NOAA-19 Satellite Orbit:

Table of predicted SNOs for the next 14.0 days since TLE Epoch: 1/26/2018
Index Date (NOAA-20) Time (NOAA-20) Lat,Lon (NOAA-20) SZA (NOAA-20 ) Date (NOAA-19) Time (NOAA-19) Lat,Lon (NOAA-19) SZA (NOAA-19 ) Distance(km) Time Diff (sec)
1 01/31/2018 15:16:35 80.67, -95.97 101.14 01/31/2018 15:15:27 80.67, -96.05 101.19 1.50 68
2 01/31/2018 16:07:20 -80.67, 71.30 78.86 01/31/2018 16:06:33 -80.67, 71.28 78.83 0.75 47
3 01/31/2018 16:58:05 80.67,-121.38 101.13 01/31/2018 16:57:28 80.67,-121.44 101.16 1.31 37
4 01/31/2018 17:48:50 -80.67, 45.89 78.88 01/31/2018 17:48:34 -80.68, 45.88 78.86 0.84 16
5 01/31/2018 18:39:35 80.67,-146.79 101.12 01/31/2018 18:39:29 80.68,-146.83 101.13 1.21 6
6 01/31/2018 19:30:20 -80.67, 20.48 78.89 01/31/2018 19:30:35 -80.68, 20.49 78.89 1.04 15
7 01/31/2018 20:21:05 80.67,-172.20 101.10 01/31/2018 20:21:30 80.68,-172.23 101.10 1.22 25
8 01/31/2018 21:11:50 -80.68, -4.93 78.91 01/31/2018 21:12:36 -80.69, -4.90 78.92 1.30 46
9 01/31/2018 22:02:35 80.68, 162.39 101.09 01/31/2018 22:03:31 80.69, 162.38 101.07 1.34 56




NCC Satellite Simultaneous Nadir Overpasses (SNOs) Prediction Service
